Regional Weather Roundup
Issued by NWS

Home | Current Version | Previous Version | Graphics & Text | Print | Product List | Glossary On
Versions: 1 2 3 4 5 6 7 8 9 10 11 12 13 14 15 16 17 18 19 20 21 22 23 24 25 26 27 28 29 30 31 32 33 34 35 36 37 38 39 40 41 42 43 44 45 46 47 48 49 50
000
ASUS43 KIND 242009
RWRIN

WEATHER ROUNDUP FOR INDIANA
NATIONAL WEATHER SERVICE INDIANAPOLIS IN
400 PM EDT WED AUG 24 2016

NOTE: "FAIR" INDICATES FEW OR NO CLOUDS BELOW 12,000 FEET WITH NO
SIGNIFICANT WEATHER AND/OR OBSTRUCTIONS TO VISIBILITY.

* - STATION DOES NOT REPORT WEATHER SUCH AS PRECIPITATION OR FOG.

+ - STATION NOT QUALITY CONTROLLED BY THE NATIONAL WEATHER SERVICE.
    USE DATA WITH CAUTION...ESPECIALLY DEWPOINT AND RELATIVE
    HUMIDITY OBSERVATIONS.

INZ001>003-010>013-019-020-242100-
NORTHWEST INDIANA

CITY           SKY/WX    TMP DP  RH WIND       PRES   REMARKS
GARY /AIRPORT/ MOSUNNY   81  75  83 S8        29.93F
KNOX *+        CLOUDY    79  57  47 S12G18    29.96F
LA PORTE +     PTSUNNY   81  80  96 SW13G21   29.96F
MICHIGAN CITY+ PTSUNNY   81  73  78 MISG      29.94F
MONTICELLO +   CLOUDY    82  73  74 S15       29.97F
RENSSELAER +   HVY RAIN  79  75  89 W9        29.96F
VALPARAISO     PTSUNNY   80  73  79 SW13      29.95F

$$

LMZ046-743>745-242100-
SOUTHERN LAKE MICHIGAN

STATION/POSITION TIME  TEMP    WIND        PRES    WAVE
                       AIR SEA DIR/SP/G            HT
                 (UTC) (F)     (DEG/KT/KT) (MB)    (FT)
BURNS HARBOR     1907   78     190/ 18     1013.9F
MICHIGAN CITY    1900   76     180/ 20/ 24   N/A
5NW MICH CITY    2000   78 74  220/ 12/ 17   N/A     2

$$

INZ004-005-014>016-021>024-242100-
NORTH CENTRAL INDIANA

CITY           SKY/WX    TMP DP  RH WIND       PRES   REMARKS
ELKHART        CLOUDY    79  73  83 SW14G23   29.97F
GOSHEN         CLOUDY    78  71  79 S14G26    29.98F
LOGANSPORT +   CLOUDY    81  75  83 SW12      30.01F
PERU/GRISSOM   PTSUNNY   76  75  95 S12       30.01R
ROCHESTER +    PTSUNNY   79  77  94 S10G16    30.00F
SOUTH BEND     CLOUDY    79  73  82 SW18G25   29.96F
WARSAW +       LGT RAIN  75  75 100 S6        30.01S

$$

INZ006>009-017-018-025>027-242100-
NORTHEAST INDIANA

CITY           SKY/WX    TMP DP  RH WIND       PRES   REMARKS
ANGOLA *+      PTSUNNY   81  73  78 S13       29.99F
AUBURN +       PTSUNNY   77  72  83 S8        30.02S
FORT WAYNE     RAIN      76  73  91 S9        30.03F FOG
HUNTINGTON +   LGT RAIN N/A N/A N/A SE3       30.01F

$$

INZ028-029-035-036-043>045-051>053-242100-
WEST CENTRAL INDIANA

CITY           SKY/WX    TMP DP  RH WIND       PRES   REMARKS
CRAWFORDSVL +  CLOUDY    81  81  98 SW8       30.02F
GREENCASTLE +  CLOUDY    84  79  84 SW8       30.04R HX  96
LAFAYETTE      CLOUDY    81  76  84 S12       29.97F
TERRE HAUTE    CLOUDY    87  75  67 SW17      30.02F HX  96

$$

INZ030>032-037>040-046>048-054>057-064-065-242100-
CENTRAL INDIANA

CITY           SKY/WX    TMP DP  RH WIND       PRES   REMARKS
ANDERSON       CLOUDY    81  73  78 S6        30.08
COLUMBUS       CLOUDY    86  75  70 SW18G25   30.05F HX  95
INDIANAPOLIS   CLOUDY    84  72  67 S20G29    29.99F THUNDER
-EAGLE CREEK   TSTM      76  73  91 N17G35    30.01F VSB 1/4
MARION +       HVY RAIN  76  73  88 S6        30.05S
MT COMFORT *+  CLOUDY    81  73  78 S6        30.05R
SHELBYVILLE    CLOUDY    85  72  65 S13       30.04F
ZIONSVILLE +   TSTM      75  74  96 SW8       30.06R

$$

INZ033-034-041-042-049-050-058-059-242100-
EAST CENTRAL INDIANA

CITY           SKY/WX    TMP DP  RH WIND       PRES   REMARKS
MUNCIE         CLOUDY    82  72  71 S12       30.06R

$$

INZ060-061-067>069-081>083-085>088-242100-
SOUTHWEST INDIANA

CITY           SKY/WX    TMP DP  RH WIND       PRES   REMARKS
EVANSVILLE     MOSUNNY   88  73  61 SW17G25   30.07F HX  95
HUNTINGBURG *+ MOSUNNY   90  75  62 SW12      30.08F HX 100
WASHINGTON +   CLOUDY    89  76  66 MISG      30.05S HX  99

$$

INZ062-063-066-070>080-084-089>092-242100-
SOUTH CENTRAL AND SOUTHEAST INDIANA

CITY           SKY/WX    TMP DP  RH WIND       PRES   REMARKS
BLOOMINGTON    PTSUNNY   85  73  67 SW15G25   30.05F
MADISON *+     CLOUDY    88  70  55 S12G20    30.10F

$$




USA.gov is the U.S. government's official web portal to all federal, state and local government web resources and services.